User: anonymous   Login
Location: Aufkirchen
(47.9603°N, 11.3653°E)
Time: 06:01:49
(UTC+02:00)
Language:

Transit 2A - Orbit

View from above orbital plane
View from above orbital plane
View from above satellite
View from above satellite

Ground track
Ground track

The orbit data is extracted from the following two-line orbital elements,

1    45U 60007A   21209.79449074 -.00000070  00000-0  93989-5 0  9991
2    45  66.6951  30.0734 0252852  18.2387 342.7578 14.33728181180951
Epoch (UTC): 28 July 2021 19:04:04
Eccentricity: 0.0252852
inclination: 66.6951°
perigee height: 598 km
apogee height: 960 km
right ascension of ascending node: 30.0734°
argument of perigee: 18.2387°
revolutions per day: 14.33728181
mean anomaly at epoch: 342.7578°
orbit number at epoch: 18095

The dashed part of the orbit path shows where the satellite is in the earth's shadow,  

DLR